{"data":{"norad_id":45150,"intl_designator":"2020-008V","name":"ONEWEB-0044","alt_names":[],"object_type":"PAYLOAD","status":"ACTIVE","operator":null,"country":"UK","launch_date":"2020-02-06","launch_site_code":"TYMSC","launch_vehicle":null,"mission":null,"orbit_class":"UNKNOWN","rcs_meters":null,"size_class":null,"mass_kg":null,"dimensions":null,"purposes":["comms"],"wikipedia_slug":null,"has_3d_model":false,"image_url":null,"decayed_at":null,"tle_current":{"epoch":"2026-05-25T02:17:57.049152Z","epoch_age_seconds":63404,"freshness":"FRESH","line1":"1 45150U 20008V   26145.09579918  .00000392  00000+0  10861-2 0  9992","line2":"2 45150  87.8859  40.8619 0001967  76.2037 283.9309 13.10371175305458","mean_motion":13.10371175,"eccentricity":0.0001967,"inclination_deg":87.8859,"raan_deg":40.8619,"arg_perigee_deg":76.2037,"mean_anomaly_deg":283.9309,"bstar":0.0010861,"rev_number":30545,"period_min":109.89252720703,"perigee_km":1220.228607033,"apogee_km":1223.2183921535,"semimajor_km":7599.8604995932,"source":"CELESTRAK","updated_at":"2026-05-25T13:38:22.336761Z"}}}